When you browse on this site, cookies collect data to enhance your experience and personalize the content and advertising you see.
Visit our Privacy Policy to learn more. By continuing to use the site, you agree to this use of cookies and data.
  • In Lithuania
  • List of Countries
  • For 7 days
  • Water Temperature
  • Weather Map
  • Weather Widgets
  • user-avatar
    Login

    Hourly Weather Norwich

    Today, 4 April, Saturday

    Time Temperature Precipitation Wind Pressure Humidity
    00:00 +4°C° 0 mm 4 mps 762 mmHg 87%
    01:00 +4°C° 0 mm 4 mps 762 mmHg 88%
    02:00 +3°C° 0 mm 3 mps 762 mmHg 89%
    03:00 +3°C° 0 mm 3 mps 762 mmHg 90%
    04:00 +3°C° 0 mm 3 mps 762 mmHg 91%
    05:00 +3°C° 0 mm 3 mps 762 mmHg 91%
    06:00 +3°C° 0 mm 3 mps 762 mmHg 91%
    07:00 +5°C° 0 mm 3 mps 762 mmHg 85%
    08:00 +7°C° 0 mm 4 mps 763 mmHg 79%
    09:00 +10°C° 0 mm 4 mps 763 mmHg 73%
    10:00 +11°C° 0 mm 4 mps 763 mmHg 69%
    11:00 +12°C° 0 mm 5 mps 763 mmHg 65%
    12:00 +13°C° 0 mm 4 mps 763 mmHg 61%
    13:00 +13°C° 0 mm 5 mps 763 mmHg 61%
    14:00 +13°C° 0 mm 5 mps 762 mmHg 61%
    15:00 +13°C° 0 mm 6 mps 762 mmHg 61%
    16:00 +12°C° 0 mm 5 mps 762 mmHg 65%
    17:00 +9°C° 0 mm 5 mps 762 mmHg 69%
    18:00 +8°C° 0 mm 4 mps 762 mmHg 72%
    19:00 +7°C° 0 mm 4 mps 762 mmHg 75%
    20:00 +6°C° 0 mm 4 mps 762 mmHg 77%
    21:00 +5°C° 0 mm 4 mps 763 mmHg 80%
    22:00 +5°C° 0 mm 4 mps 762 mmHg 81%
    23:00 +6°C° 0 mm 4 mps 762 mmHg 82%

    Tomorrow, 5 April, Sunday

    Time Temperature Precipitation Wind Pressure Humidity
    00:00 +7°C° 0 mm 3 mps 762 mmHg 83%
    01:00 +6°C° 0 mm 4 mps 762 mmHg 84%
    02:00 +6°C° 0 mm 4 mps 762 mmHg 85%
    03:00 +6°C° 0 mm 4 mps 761 mmHg 86%
    04:00 +5°C° 0 mm 5 mps 761 mmHg 87%
    05:00 +5°C° 0 mm 5 mps 761 mmHg 87%
    06:00 +5°C° 0 mm 5 mps 761 mmHg 87%
    07:00 +7°C° 0 mm 6 mps 760 mmHg 81%
    08:00 +9°C° 0 mm 6 mps 760 mmHg 75%
    09:00 +10°C° 0 mm 7 mps 760 mmHg 69%
    10:00 +11°C° 0 mm 7 mps 760 mmHg 67%
    11:00 +12°C° 0 mm 7 mps 759 mmHg 65%
    12:00 +13°C° 0 mm 8 mps 759 mmHg 63%
    13:00 +13°C° 0 mm 8 mps 758 mmHg 63%
    14:00 +15°C° 0 mm 8 mps 758 mmHg 63%
    15:00 +15°C° 0 mm 8 mps 757 mmHg 63%
    16:00 +14°C° 0 mm 7 mps 757 mmHg 67%
    17:00 +12°C° 0 mm 7 mps 756 mmHg 70%
    18:00 +13°C° 0 mm 6 mps 756 mmHg 73%
    19:00 +11°C° 0 mm 7 mps 756 mmHg 73%
    20:00 +11°C° 0 mm 7 mps 756 mmHg 73%
    21:00 +10°C° 0 mm 7 mps 756 mmHg 74%
    22:00 +10°C° 0 mm 7 mps 756 mmHg 75%
    23:00 +10°C° 0 mm 7 mps 756 mmHg 77%

    Day after tomorrow, 6 April, Monday

    Time Temperature Precipitation Wind Pressure Humidity
    00:00 +10°C° 0 mm 6 mps 756 mmHg 78%
    01:00 +10°C° 0 mm 6 mps 756 mmHg 79%
    02:00 +10°C° 0 mm 7 mps 756 mmHg 80%
    03:00 +10°C° 0 mm 7 mps 756 mmHg 81%
    04:00 +10°C° 0 mm 6 mps 756 mmHg 82%
    05:00 +10°C° 0 mm 6 mps 756 mmHg 83%
    06:00 +10°C° 0 mm 5 mps 756 mmHg 84%
    07:00 +10°C° 0.2 mm 5 mps 757 mmHg 86%
    08:00 +11°C° 0.2 mm 4 mps 758 mmHg 88%
    09:00 +12°C° 0.2 mm 4 mps 758 mmHg 89%
    10:00 +12°C° 0.5 mm 4 mps 759 mmHg 89%
    11:00 +12°C° 0.5 mm 3 mps 759 mmHg 88%
    12:00 +12°C° 0.5 mm 3 mps 760 mmHg 87%
    13:00 +13°C° 0.3 mm 3 mps 760 mmHg 81%
    14:00 +13°C° 0.3 mm 3 mps 761 mmHg 76%
    15:00 +14°C° 0.3 mm 3 mps 761 mmHg 70%
    16:00 +13°C° 0.1 mm 3 mps 762 mmHg 73%
    17:00 +12°C° 0.1 mm 3 mps 763 mmHg 75%
    18:00 +12°C° 0.1 mm 3 mps 763 mmHg 78%
    19:00 +12°C° 0 mm 2 mps 764 mmHg 80%
    20:00 +10°C° 0 mm 2 mps 765 mmHg 81%
    21:00 +9°C° 0 mm 2 mps 766 mmHg 83%
    22:00 +8°C° 0 mm 2 mps 766 mmHg 83%
    23:00 +7°C° 0 mm 2 mps 767 mmHg 84%

    7 April, Tuesday

    Time Temperature Precipitation Wind Pressure Humidity
    00:00 +7°C° 0 mm 3 mps 767 mmHg 84%
    01:00 +7°C° 0 mm 2 mps 768 mmHg 83%
    02:00 +6°C° 0 mm 2 mps 768 mmHg 82%
    03:00 +6°C° 0 mm 2 mps 768 mmHg 82%
    04:00 +6°C° 0 mm 2 mps 769 mmHg 81%
    05:00 +7°C° 0 mm 1 mps 769 mmHg 80%
    06:00 +7°C° 0 mm 1 mps 770 mmHg 79%
    07:00 +9°C° 0 mm 1 mps 770 mmHg 74%
    08:00 +10°C° 0 mm 1 mps 770 mmHg 69%
    09:00 +12°C° 0 mm 2 mps 770 mmHg 64%
    10:00 +13°C° 0 mm 2 mps 771 mmHg 61%
    11:00 +14°C° 0 mm 2 mps 771 mmHg 59%
    12:00 +15°C° 0 mm 2 mps 771 mmHg 57%
    13:00 +16°C° 0 mm 3 mps 770 mmHg 58%
    14:00 +16°C° 0 mm 3 mps 770 mmHg 59%
    15:00 +16°C° 0 mm 3 mps 770 mmHg 60%
    16:00 +14°C° 0 mm 3 mps 770 mmHg 66%
    17:00 +13°C° 0 mm 3 mps 770 mmHg 72%
    18:00 +11°C° 0 mm 3 mps 769 mmHg 77%
    19:00 +10°C° 0 mm 3 mps 770 mmHg 79%
    20:00 +9°C° 0 mm 3 mps 770 mmHg 81%
    21:00 +8°C° 0 mm 3 mps 770 mmHg 83%
    22:00 +8°C° 0 mm 2 mps 770 mmHg 85%
    23:00 +7°C° 0 mm 2 mps 770 mmHg 88%

    8 April, Wednesday

    Time Temperature Precipitation Wind Pressure Humidity
    00:00 +7°C° 0 mm 2 mps 770 mmHg 90%
    01:00 +7°C° 0 mm 2 mps 770 mmHg 90%
    02:00 +7°C° 0 mm 2 mps 769 mmHg 91%
    03:00 +7°C° 0 mm 2 mps 769 mmHg 91%
    04:00 +7°C° 0 mm 2 mps 769 mmHg 91%
    05:00 +7°C° 0 mm 2 mps 769 mmHg 92%
    06:00 +7°C° 0 mm 2 mps 769 mmHg 92%
    07:00 +9°C° 0 mm 2 mps 769 mmHg 86%
    08:00 +10°C° 0 mm 2 mps 769 mmHg 80%
    09:00 +13°C° 0 mm 2 mps 769 mmHg 74%
    10:00 +14°C° 0 mm 2 mps 769 mmHg 69%
    11:00 +15°C° 0 mm 2 mps 769 mmHg 64%
    12:00 +16°C° 0 mm 2 mps 769 mmHg 60%
    13:00 +16°C° 0 mm 2 mps 769 mmHg 60%
    14:00 +16°C° 0 mm 2 mps 769 mmHg 60%
    15:00 +16°C° 0 mm 3 mps 768 mmHg 60%
    16:00 +14°C° 0 mm 2 mps 768 mmHg 65%
    17:00 +13°C° 0 mm 2 mps 768 mmHg 70%
    18:00 +12°C° 0 mm 2 mps 768 mmHg 75%
    19:00 +9°C° 0 mm 2 mps 769 mmHg 75%
    20:00 +8°C° 0 mm 2 mps 769 mmHg 76%
    21:00 +8°C° 0 mm 1 mps 769 mmHg 77%
    22:00 +7°C° 0 mm 2 mps 770 mmHg 77%
    23:00 +7°C° 0 mm 2 mps 770 mmHg 77%

    9 April, Thursday

    Time Temperature Precipitation Wind Pressure Humidity
    00:00 +6°C° 0 mm 2 mps 770 mmHg 77%
    01:00 +6°C° 0 mm 2 mps 770 mmHg 81%
    02:00 +6°C° 0 mm 2 mps 770 mmHg 85%
    03:00 +6°C° 0 mm 2 mps 770 mmHg 89%
    04:00 +5°C° 0 mm 3 mps 771 mmHg 91%
    05:00 +5°C° 0 mm 3 mps 771 mmHg 93%
    06:00 +5°C° 0 mm 3 mps 771 mmHg 94%
    07:00 +6°C° 0 mm 4 mps 771 mmHg 87%
    08:00 +7°C° 0 mm 4 mps 772 mmHg 80%
    09:00 +9°C° 0 mm 5 mps 772 mmHg 73%
    10:00 +9°C° 0 mm 5 mps 772 mmHg 68%
    11:00 +9°C° 0 mm 5 mps 772 mmHg 64%
    12:00 +10°C° 0 mm 5 mps 772 mmHg 60%
    13:00 +10°C° 0 mm 5 mps 772 mmHg 60%
    14:00 +9°C° 0 mm 5 mps 772 mmHg 60%
    15:00 +9°C° 0 mm 5 mps 771 mmHg 60%
    16:00 +8°C° 0 mm 5 mps 771 mmHg 64%
    17:00 +7°C° 0 mm 4 mps 771 mmHg 68%
    18:00 +6°C° 0 mm 4 mps 771 mmHg 72%
    19:00 +5°C° 0 mm 4 mps 771 mmHg 76%
    20:00 +5°C° 0 mm 4 mps 771 mmHg 79%
    21:00 +4°C° 0 mm 4 mps 771 mmHg 83%
    22:00 +4°C° 0 mm 4 mps 771 mmHg 85%
    23:00 +3°C° 0 mm 3 mps 771 mmHg 87%
    Show more